Greybull, WY

2:02 AM MDT on June 29, 2017 (GMT -0600)
South Big Horn County

Weather History for KGEY - October, 2013

Change the Weather History Date:

Sunday, October 13, 2013

  Actual Average Record
Temperature  
Mean Temperature 40 °F 47 °F  
Max Temperature 50 °F 61 °F 78 °F (2015)
Min Temperature 30 °F 33 °F 21 °F (2002)
Degree Days  
Heating Degree Days 25 18  
Month to date heating degree days 264 202  
Since 1 July heating degree days 386 433  
Cooling Degree Days 0 0  
Month to date cooling degree days 0 0  
Year to date cooling degree days 1005 669  
Moisture  
Dew Point 34 °F    
Average Humidity 76    
Maximum Humidity 96    
Minimum Humidity 56    
Precipitation  
Precipitation 0.26 in 0.02 in 0.26 in (2013)
Month to date precipitation 0.81 0.32  
Year to date precipitation 4.54 6.65  
Sea Level Pressure  
Sea Level Pressure 30.11 in    
Wind  
Wind Speed 6 mph (NW)    
Max Wind Speed 16 mph    
Max Gust Speed 21 mph    
Visibility 9 miles    
Events Rain    
T = Trace of Precipitation, MM = Missing Value Source: NWS Daily Summary

Daily Weather History Graph

Daily Weather History Graph

Search for Another Location

Airport or City:

Trip Planner

Search our weather history database for the weather conditions in past years. The results will help you decide how hot, cold, wet, or windy it might be!

Date:

Astronomy

Oct. 13, 2013 Rise Set
Actual Time 7:25 AM MDT 6:30 PM MDT
Civil Twilight 6:56 AM MDT 7:00 PM MDT
Nautical Twilight 6:22 AM MDT 7:33 PM MDT
Astronomical Twilight 5:48 AM MDT 8:07 PM MDT
Moon 3:35 PM MDT (10/13) 1:26 AM MDT (10/13)
Length of Visible Light 12h 04m
Length of Day
11h 05m
Waxing Gibbous, 70% of the Moon is Illuminated
Oct 13
Waxing Gibbous
Oct 18
Full
Oct 26
Last Quarter
Nov 3
New
Nov 9
First Quarter

Hourly Weather History & Observations

Time (MDT) Temp. Windchill Dew Point Humidity Pressure Visibility Wind Dir Wind Speed Gust Speed Precip Events Conditions
12:53 AM 34.0 °F - 28.9 °F 82% 30.12 in 10.0 mi Calm Calm - N/A   Clear
1:53 AM 34.0 °F - 30.9 °F 89% 30.12 in 10.0 mi Calm Calm - N/A   Clear
2:53 AM 33.1 °F - 30.0 °F 89% 30.12 in 10.0 mi Calm Calm - N/A   Clear
3:53 AM 35.1 °F - 30.9 °F 85% 30.10 in 10.0 mi Calm Calm - N/A   Clear
4:53 AM 32.0 °F - 30.9 °F 96% 30.12 in 10.0 mi Calm Calm - N/A   Clear
5:53 AM 33.1 °F - 30.0 °F 89% 30.11 in 10.0 mi Calm Calm - N/A   Clear
6:53 AM 32.0 °F 28.7 °F 30.0 °F 92% 30.13 in 10.0 mi SE 3.5 mph - N/A   Partly Cloudy
7:53 AM 30.9 °F 26.2 °F 28.9 °F 92% 30.15 in 10.0 mi South 4.6 mph - N/A   Partly Cloudy
8:53 AM 34.0 °F 29.8 °F 32.0 °F 92% 30.17 in 10.0 mi SSE 4.6 mph - N/A   Overcast
9:53 AM 37.9 °F 34.4 °F 34.0 °F 86% 30.17 in 10.0 mi SE 4.6 mph - N/A   Overcast
10:53 AM 39.9 °F - 34.0 °F 79% 30.15 in 10.0 mi Calm Calm - N/A   Overcast
11:53 AM 43.0 °F - 35.1 °F 74% 30.16 in 10.0 mi Calm Calm - 0.00 in   Overcast
12:53 PM 45.0 °F - 34.0 °F 65% 30.13 in 10.0 mi Calm Calm - N/A   Mostly Cloudy
1:53 PM 46.9 °F - 33.1 °F 59% 30.10 in 10.0 mi NNW 5.8 mph - N/A   Mostly Cloudy
2:53 PM 48.0 °F - 34.0 °F 58% 30.09 in 10.0 mi Calm Calm - N/A   Mostly Cloudy
3:53 PM 48.9 °F - 36.0 °F 61% 30.07 in 10.0 mi North 10.4 mph - N/A   Mostly Cloudy
4:53 PM 48.0 °F - 36.0 °F 63% 30.08 in 10.0 mi NNW 9.2 mph - N/A   Overcast
5:53 PM 46.9 °F - 36.0 °F 66% 30.09 in 10.0 mi NNW 12.7 mph - N/A   Overcast
6:53 PM 43.0 °F 36.0 °F 36.0 °F 76% 30.11 in 10.0 mi NW 13.8 mph - N/A   Mostly Cloudy
7:53 PM 41.0 °F 33.9 °F 36.0 °F 82% 30.13 in 10.0 mi NW 12.7 mph - N/A   Overcast
8:53 PM 39.9 °F 33.4 °F 37.9 °F 93% 30.14 in 8.0 mi WNW 10.4 mph - 0.01 in Rain Light Rain
9:42 PM 39.2 °F 32.5 °F 37.4 °F 93% 30.07 in 6.0 mi WNW 10.4 mph - 0.04 in Rain Rain
9:53 PM 39.9 °F 32.5 °F 37.9 °F 93% 30.12 in 6.0 mi WNW 12.7 mph - 0.07 in Rain Rain
10:33 PM 39.2 °F 33.6 °F 37.4 °F 93% 30.06 in 6.0 mi WNW 8.1 mph - 0.07 in Rain Rain
10:53 PM 39.0 °F 34.0 °F 37.9 °F 96% 30.11 in 6.0 mi WNW 6.9 mph - 0.10 in Rain Light Rain
11:12 PM 39.2 °F 32.5 °F 37.4 °F 93% 30.05 in 8.0 mi NW 10.4 mph - 0.01 in Rain Light Rain
11:53 PM 39.0 °F 32.3 °F 37.0 °F 93% 30.10 in 9.0 mi WNW 10.4 mph - 0.03 in Rain Light Rain